Regional Weather Roundup
Issued by NWS Grand Forks, ND

Home | Current Version | Previous Version | Graphics & Text | Print | Product List | Glossary On
Versions: 1 2 3 4 5 6 7 8 9 10 11 12 13 14 15 16 17 18 19 20 21 22 23 24 25 26 27 28 29 30 31 32 33 34 35 36 37 38 39 40 41 42 43 44 45 46 47 48 49 50
653
ASUS43 KFGF 300331
RWRFGF
PRAIRIE TO PINES  WEATHER ROUNDUP
NATIONAL WEATHER SERVICE EASTERN NORTH DAKOTA/GRAND FORKS ND
1000 PM CDT SUN MAY 29 2016

 **SATELLITE DATA USED TO AUGMENT SKY COVER AT AUTOMATED STATIONS**
 *****  WEATHER ACROSS EASTERN NORTH DAKOTA  *****

CITY           SKY/WX    TMP DP  RH WIND       PRES   REMARKS
GRAND FORKS    CLEAR     60  51  72 SW3       29.91R
GRAND FRKS AFB CLEAR     59  49  70 W3        29.92R
GRAND FRKS NWS   N/A     59 N/A N/A N1          N/A
DEVILS LAKE    CLEAR     61  46  57 CALM      29.94R
FARGO          CLEAR     64  50  60 CALM      29.92R
WAHPETON ARPT  CLEAR     63  41  45 CALM      29.95R
$$

 ***** WEATHER ACROSS CENTRAL AND WESTERN NORTH DAKOTA  *****

CITY           SKY/WX    TMP DP  RH WIND       PRES   REMARKS
BISMARCK       CLEAR     67  49  52 CALM      29.94S
MINOT          CLEAR     65  42  43 CALM      29.91S
JAMESTOWN      CLEAR     62  47  57 N7        29.94S
MINOT AFB      CLEAR     61  48  62 E2        29.90S
GARRISON         N/A     65  47  52 CALM      29.93R
WILLISTON      CLEAR     59  44  57 CALM      29.92R
DICKINSON      PTCLDY    64  40  41 E5        29.94R
HETTINGER      PTCLDY    59  49  69 S8        29.98R
$$

 *****  OTHER AIRPORT OBSERVATIONS IN OUR AREA  *****

CITY           SKY/WX    TMP DP  RH WIND       PRES   REMARKS
WALHALLA       FAIR      59  55  88 CALM      29.91R
GRAFTON AIRPOR FAIR      63  61  94 SE3       29.93R
VALLEY CITY AR FAIR      61  45  55 NW6       29.96S
CANDO          FAIR      57  43  58 W5        29.95S
CAVALIER APRT  FAIR      59  55  88 CALM      29.91R
GWINNER        FAIR      63  52  67 CALM      29.95S
SHEYENNE NWR     N/A     61  47  61 CALM      29.95S
ROLLA          FAIR      54  46  76 W7        29.94S
 ***** THE ABOVE OBSERVATIONS ARE NON NWS ARE NOT QUALITY
       CONTROLLED AND MAY MIS-REPORT RAIN FOR SNOW...
$$

  *****  WEATHER ACROSS NORTHERN MINNESOTA  *****

CITY           SKY/WX    TMP DP  RH WIND       PRES   REMARKS
FLAG ISLAND    CLEAR     61  54  77 W3        29.89R HAZE
WARROAD        CLEAR     59  54  82 W3        29.91S
ROSEAU         CLEAR     61  54  77 W5        29.91S
HALLOCK        CLEAR     61  55  82 CALM      29.91R
THF RVR FALLS  CLEAR     61  50  67 CALM      29.94R
BAUDETTE       CLEAR     58  50  75 W3        29.90R
WASKISH        CLEAR     63  55  77 W6        29.92S
CROOKSTON      CLEAR     59  55  88 CALM      29.93R
STEPHEN NDAWN    N/A     61  55  82 S2          N/A
GREENBUSH NDAW   N/A     57  54  88 S3          N/A
$$
  *****  WEATHER ACROSS CENTRAL AND WEST MINNESOTA  *****

CITY           SKY/WX    TMP DP  RH WIND       PRES   REMARKS
FOSSTON        CLEAR     55  52  88 S3        29.95R
BEMIDJI        CLEAR     56  51  83 CALM      29.94R
PARK RAPIDS    CLEAR     61  53  75 CALM      29.95R
ELBOW LAKE     FAIR      63  52  66 CALM      29.96S
WADENA         CLEAR     57  52  82 CALM      29.96R
DETROIT LAKES  CLEAR     61  54  77 CALM      29.97R
MOORHEAD       CLEAR     66  50  55 CALM      29.94R
FERGUS FALLS   CLEAR     66  43  42 CALM      29.93R
MORRIS MN      PTCLDY    64  46  52 CALM      29.96R
STAPLES        CLEAR     57  52  82 CALM      29.97R
$$
  *****  WEATHER ELSEWHERE ACROSS MINNESOTA  *****

CITY           SKY/WX    TMP DP  RH WIND       PRES   REMARKS
DULUTH         PTCLDY    59  51  75 W7        29.93R
INTRNTL FALLS  MOCLDY    58  53  84 W3        29.89R
ELY            PTCLDY    54  54 100 CALM      29.90R
CLOQUET        CLEAR     59  52  77 W3        29.94R
WHEATON        CLEAR     68  48  49 CALM      29.97R
BRAINERD       CLEAR     59  55  87 CALM      29.96R
HIBBING        CLEAR     57  52  83 W5        29.92R
ALEXANDRIA     CLEAR     61  48  62 CALM      29.98R
SAINT CLOUD    CLEAR     62  55  77 CALM      29.96R
MINNEAPOLIS    CLEAR     70  56  61 W6        29.96R
$$

  *****  WEATHER ACROSS SOUTH DAKOTA  *****

CITY           SKY/WX    TMP DP  RH WIND       PRES   REMARKS
SIOUX FALLS    CLEAR     59  54  83 CALM      30.03R
BROOKINGS      CLEAR     63  52  67 SW3       30.02R
WATERTOWN      CLEAR     60  47  61 S5        30.00R
HURON          CLEAR     68  51  54 S7        29.98R
SISSETON         N/A     64  49  57 CALM      29.95R
ABERDEEN       PTCLDY    66  48  52 S8        29.96R
MITCHELL       CLEAR     68  58  70 SE5       30.01R
PIERRE         CLEAR     64  54  69 E8        29.96R
MOBRIDGE       PTCLDY    62  56  80 CALM      29.94S
RAPID CITY     CLEAR     61  53  75 E10       29.98R
$$

  *****  SOME WEATHER IN NEARBY STATES *****

CITY           SKY/WX    TMP DP  RH WIND       PRES   REMARKS
GLASGOW MT     CLEAR     68  38  33 NW3       29.90S
GREAT FALLS MT PTCLDY    57  42  57 N9        29.97R
CHEYENNE WY    CLOUDY    56  42  59 W9        30.14F
SCOTTSBLUFF NE MOCLDY    62  45  53 N3        30.02R
OMAHA NE       CLOUDY    75  59  57 CALM      29.99R
DES MOINES IA  CLOUDY    76  56  49 S5        30.01R
DAVENPORT IA   PTCLDY    70  58  65 SW6       30.02R
CHICAGO IL     PTCLDY    70  58  65 W6        29.99R
EAU CLAIRE WI  CLEAR     64  57  78 SW3       29.94R
LA CROSSE WI   CLEAR     66  58  75 CALM      29.96R
$$

  *****  SOME NATIONAL WEATHER *****

CITY           SKY/WX    TMP DP  RH WIND       PRES   REMARKS
LA GUARDIA NY  LGT RAIN  71  69  93 S7        30.06S
RALEIGH NC     CLOUDY    67  64  90 NE6       30.05S
ATLANTA GA     PTCLDY    74  62  66 E5        30.07R
NEW ORLEANS LA CLOUDY    79  71  76 S7        30.04R
OKLAHOMA CITY  TSTM      70  59  68 SW7       30.08R
ALBUQUERQUE NM PTCLDY    78  18  10 S15       30.03R
SALT LAKE CITY CLOUDY    68  44  42 S14       30.04R
LOS ANGELES CA PTCLDY    61  53  75 W13       29.99R
BOISE ID       CLEAR     75  30  19 N5        29.92S
SEATTLE WA     MOCLDY    61  43  51 NE10      30.20R
$$

*** WEATHER ACROSS MANITOBA...SASKATCHEWAN AND ONTARIO ***
                ***ONTARIO***

CITY           SKY/WX    TMP DP  RH WIND       PRES   REMARKS
GERALDTON      DRZL/FOG  52  52 100 NW8       29.76R VSB 3/8
THUNDER BAY    MOCLDY    57  55  94 SW7       29.82R
SIOUX LOOKOUT  CLOUDY    54  54 100 NW7       29.83R
TORONTO        MOCLDY    75  50  41 SW13      29.92R
BIG TROUT LK   MOCLDY    45  37  76 NE7       29.89S
PICKLE LAKE    NOT AVBL
DRYDEN         CLOUDY    55  54  94 W13G18    29.85R FOG
KENORA         PTCLDY    55  52  88 NW6       29.89R
$$
                *** MANITOBA***

CITY           SKY/WX    TMP DP  RH WIND       PRES   REMARKS
BRANDON        PTCLDY    61  48  63 CALM      29.89R
DAUPHIN        MOCLDY    55  54  94 CALM      29.88S
ISLAND LAKE    LGT RAIN  52  50  93 NE3       29.93S
PILOT MOUND      N/A     61  46  59 NW1         N/A
THE PAS        LGT RAIN  48  46  93 N3        29.92S
THOMPSON       LGT RAIN  46  45  93 NE9       29.98R
WINNIPEG       CLEAR     57  52  82 N5        29.90R
LYNN LAKE      LGT RAIN  46  45  93 E8        30.00R
CHURCHILL      CLOUDY    28  27  93 NE14      30.20S FOG     WCI  17
GILLAM         LGT RAIN  43  39  87 NE10      30.03S
$$
                ***SASKATCHEWAN***

CITY           SKY/WX    TMP DP  RH WIND       PRES   REMARKS
ESTEVAN        PTCLDY    57  46  67 W3        29.90S
KINDERSLEY     MOCLDY    61  45  55 E9        29.84R
LLOYDMINSTER   MOCLDY    55  48  76 E8        29.88R
PRINCE ALBERT  MOCLDY    54  48  82 NE7       29.92R
REGINA         PTCLDY    63  43  48 NW3       29.89R
YORKTON        CLEAR     59  46  63 SE5       29.87R
N. BATTLEFORD  CLEAR     59  50  72 NE9       29.89S
LA RONGE       MOCLDY    54  43  66 CALM      29.93S
SASKATOON      PTCLDY    59  48  67 NE10      29.89R
SWIFT CURRENT  CLEAR     61  46  59 W8        29.87R
$$
NOTE: THESE ARE AUTOMATED STATIONS WITH LIMITED QUALITY CONTROL
      "FAIR" INDICATES FEW OR NO CLOUDS BELOW 12,000 FEET WITH NO
      SIGNIFICANT WEATHER AND/OR OBSTRUCTIONS TO VISIBILITY.
      SKY/WX - SKY CONDITION AND SIGNIFICANT WEATHER.
      TMP - AIR TEMPERATURE.    DP   - DEWPOINT TEMPERATURE.
      RH  - RELATIVE HUMIDITY.  PRES - PRESSURE.
      HX  - HEAT INDEX.         WCI  - WIND CHILL INDEX.
$




USA.gov is the U.S. government's official web portal to all federal, state and local government web resources and services.